Weather History for Whiting Fld NAS, FL

Change the Weather History Date:

Friday, December 7, 2012

  Actual Average Record
Temperature  
Mean Temperature 63 °F -  
Max Temperature 69 °F 62 °F 77 °F (1998)
Min Temperature 57 °F 45 °F 27 °F (1997)
Degree Days  
Heating Degree Days 2    
Growing Degree Days 13 (Base 50)    
Moisture  
Dew Point 57 °F    
Average Humidity 80    
Maximum Humidity 93    
Minimum Humidity 68    
Precipitation  
Precipitation 0.00 in - - ()
Sea Level Pressure  
Sea Level Pressure 29.96 in    
Wind  
Wind Speed 6 mph (East)    
Max Wind Speed 9 mph    
Max Gust Speed -    
Visibility 8 miles    
Events Rain    
Averages and records for this station are not official NWS values.
T = Trace of Precipitation, MM = Missing Value Source: NWS Daily Summary

Daily Weather History Graph

Daily Weather History Graph

Search for Another Location

Airport:

Trip Planner

Search our weather history database for the weather conditions in past years. The results will help you decide how hot, cold, wet, or windy it might be!

Date:

Astronomy

Dec. 07, 2012 Rise Set
Actual Time 6:32 AM CST 4:46 PM CST
Civil Twilight 6:06 AM CST 5:13 PM CST
Nautical Twilight 5:36 AM CST 5:42 PM CST
Astronomical Twilight 5:07 AM CST 6:12 PM CST
Moon 12:14 AM CST (12/7) 12:23 PM CST (12/7)
Length of Visible Light 11h 06m
Length of Day
10h 13m
Last Quarter, 38% of the Moon is Illuminated
Dec 7
Last Quarter
Dec 13
New
Dec 19
First Quarter
Dec 28
Full
Jan 4
Last Quarter

Hourly Weather History & Observations

Time (CST) Temp. Dew Point Humidity Pressure Visibility Wind Dir Wind Speed Gust Speed Precip Events Conditions
12:56 AM 60.1 °F 54.0 °F 80% 29.95 in 10.0 mi East 6.9 mph - N/A   Clear
1:56 AM 59.0 °F 54.0 °F 83% 29.94 in 10.0 mi East 5.8 mph - N/A   Clear
2:56 AM 60.1 °F 55.0 °F 83% 29.94 in 10.0 mi ENE 6.9 mph - 0.00 in   Mostly Cloudy
3:18 AM 60.8 °F 53.6 °F 77% 29.97 in 9.0 mi ENE 6.9 mph - N/A   Scattered Clouds
3:56 AM 59.0 °F 54.0 °F 83% 29.94 in 8.0 mi NE 4.6 mph - N/A   Clear
4:56 AM 59.0 °F 54.0 °F 83% 29.94 in 7.0 mi East 5.8 mph - 0.00 in Rain Light Rain
5:03 AM 57.2 °F 53.6 °F 88% 29.98 in 6.0 mi East 5.8 mph - 0.00 in Rain Light Rain
5:23 AM 57.2 °F 53.6 °F 88% 29.99 in 5.0 mi East 4.6 mph - 0.00 in   Mostly Cloudy
5:56 AM 59.0 °F 55.0 °F 87% 29.96 in 4.0 mi ESE 3.5 mph - N/A   Overcast
6:56 AM 60.1 °F 55.0 °F 83% 29.98 in 4.0 mi ENE 5.8 mph - N/A   Overcast
7:31 AM 60.8 °F 57.2 °F 88% 30.02 in 5.0 mi ENE 6.9 mph - N/A   Overcast
7:56 AM 60.1 °F 57.9 °F 93% 29.99 in 4.0 mi ENE 8.1 mph - N/A   Overcast
8:34 AM 60.8 °F 57.2 °F 88% 30.03 in 4.0 mi East 5.8 mph - N/A   Overcast
8:56 AM 62.1 °F 57.0 °F 84% 30.00 in 5.0 mi East 8.1 mph - N/A   Overcast
9:22 AM 62.6 °F 57.2 °F 82% 30.04 in 5.0 mi East 8.1 mph - N/A   Overcast
9:49 AM 64.4 °F 57.2 °F 77% 30.03 in 7.0 mi East 9.2 mph - N/A   Overcast
9:56 AM 64.0 °F 57.9 °F 80% 29.99 in 8.0 mi East 8.1 mph - N/A   Overcast
10:56 AM 66.9 °F 57.9 °F 73% 29.97 in 10.0 mi East 6.9 mph - N/A   Mostly Cloudy
11:56 AM 69.1 °F 57.9 °F 68% 29.94 in 10.0 mi ESE 5.8 mph - N/A   Mostly Cloudy
12:56 PM 68.0 °F 59.0 °F 73% 29.92 in 10.0 mi East 6.9 mph - N/A   Overcast
1:56 PM 68.0 °F 59.0 °F 73% 29.91 in 10.0 mi ENE 4.6 mph - N/A   Overcast
2:56 PM 69.1 °F 59.0 °F 70% 29.91 in 10.0 mi ESE 6.9 mph - N/A   Overcast
3:36 PM 69.8 °F 60.8 °F 73% 29.94 in 10.0 mi ESE 4.6 mph - N/A   Overcast
3:56 PM 69.1 °F 59.0 °F 70% 29.91 in 10.0 mi East 5.8 mph - N/A   Overcast
4:56 PM 68.0 °F 59.0 °F 73% 29.92 in 10.0 mi East 5.8 mph - N/A   Overcast
5:56 PM 66.9 °F 59.0 °F 76% 29.92 in 10.0 mi East 4.6 mph - N/A   Overcast
6:56 PM 66.0 °F 59.0 °F 78% 29.93 in 10.0 mi ESE 4.6 mph - N/A   Overcast
7:56 PM 66.0 °F 57.9 °F 75% 29.94 in 10.0 mi ESE 3.5 mph - N/A   Overcast
8:56 PM 64.9 °F 57.9 °F 78% 29.95 in 10.0 mi ESE 3.5 mph - N/A   Overcast
9:56 PM 63.0 °F 57.0 °F 81% 29.95 in 9.0 mi ESE 4.6 mph - N/A   Mostly Cloudy
10:35 PM 62.6 °F 55.4 °F 77% 29.99 in 10.0 mi East 3.5 mph - N/A   Scattered Clouds
10:56 PM 61.0 °F 57.0 °F 87% 29.96 in 7.0 mi ESE 4.6 mph - N/A   Clear
11:20 PM 60.8 °F 57.2 °F 88% 29.98 in 6.0 mi East 3.5 mph - N/A   Mostly Cloudy
11:31 PM 60.8 °F 55.4 °F 82% 29.98 in 6.0 mi East 4.6 mph - N/A   Haze
11:56 PM 61.0 °F 55.9 °F 83% 29.94 in 5.0 mi East 3.5 mph - N/A   Haze